Regional Weather Roundup
Issued by NWS

Home | Current Version | Previous Version | Graphics & Text | Print | Product List | Glossary Off
Versions: 1 2 3 4 5 6 7 8 9 10 11 12 13 14 15 16 17 18 19 20 21 22 23 24 25 26 27 28 29 30 31 32 33 34 35 36 37 38 39 40 41 42 43 44 45 46 47 48 49 50

000
ASUS43 KMPX 031410
RWRMN
WEATHER ROUNDUP FOR MINNESOTA
NATIONAL WEATHER SERVICE TWIN CITIES/CHANHASSEN MN
900 AM CDT SUN MAY 03 2015


NOTE: "FAIR" INDICATES FEW OR NO CLOUDS BELOW 12,000 FEET WITH NO
SIGNIFICANT WEATHER AND/OR OBSTRUCTIONS TO VISIBILITY. N/A MEANS
CURRENT SKY AND/OR WEATHER CONDITIONS ARE NOT AVAILABLE.

MNZ060>063-068>070-031500-
   Twin Cities Metro

CITY           SKY/WX    TMP DP  RH WIND       PRES   REMARKS
TWIN CITIES    PTSUNNY   61  51  70 S8        29.79R
ST PAUL        PTSUNNY   61  52  72 S12       29.79R
CRYSTAL        CLOUDY    62  51  67 S14       29.76S
BLAINE         PTSUNNY   63  54  72 S9        29.77
LAKEVILLE      PTSUNNY   61  52  72 S7        29.79R
EDEN PRAIRIE   CLOUDY    61  51  70 S7        29.79R
SOUTH ST PAUL  PTSUNNY   61  51  68 S8        29.79R
LAKE ELMO      FAIR      61  52  72 S8        29.79S
$$
MNZ001>005-007-008-013>017-022>024-027-028-031500-
   Northwest Minnesota

CITY           SKY/WX    TMP DP  RH WIND       PRES   REMARKS
BEMIDJI        MOSUNNY   64  45  51 NW10      29.77R
HALLOCK        PTSUNNY   54  39  58 NW16      29.82R
ROSEAU         CLOUDY    52  43  71 W7        29.80R
WARROAD        PTSUNNY   54  43  66 W13       29.78R
THIEF RVR FALL CLOUDY    52  39  62 NW14      29.82R
CROOKSTON      CLOUDY    52  41  66 NW15      29.85R
DETROIT LAKES  PTSUNNY   59  52  77 N6        29.80R
MOORHEAD       CLOUDY    55  45  67 NW10      29.84R
PARK RAPIDS    MOSUNNY   64  50  60 NW12      29.77R
MAHNOMEN       FAIR      55  44  68 NW10      29.82R
$$
MNZ006-009>011-018-025>026-031500-
   North Central Minnesota

CITY           SKY/WX    TMP DP  RH WIND       PRES   REMARKS
BAUDETTE       MOSUNNY   56  44  64 NW12      29.75R
FLAG ISLAND    PTSUNNY   48  41  76 NW10      29.75R
INTL FALLS     MOSUNNY   60  45  57 W9        29.72R
WASKISH        PTSUNNY   55  50  82 SW9       29.75R
BIG FORK       MOSUNNY   66  48  52 CALM      29.73F
LONGVILLE      MOSUNNY   64  50  59 NW9       29.76R
GRAND RAPIDS   MOSUNNY   63  48  59 W9        29.75S
CRANE LAKE     MOSUNNY   63  45  51 W6        29.72R
ORR            MOSUNNY   64  43  45 W8        29.70R
COOK           MOSUNNY   64  46  52 W9        29.73R
WALKER         FAIR      64  49  58 W6        29.76R
$$
MNZ012-019>021-037-031500-
   Northeast Minnesota

CITY           SKY/WX    TMP DP  RH WIND       PRES   REMARKS
DULUTH         MOSUNNY   67  53  61 W18       29.74R
ELY            MOSUNNY   64  46  52 W10       29.72S
HIBBING        MOSUNNY   66  48  52 SW6       29.73S
EVELETH        MOSUNNY   63  46  55 W8        29.75S
DULUTH HARBOR    N/A     64  55  72 SW10      29.73R
TWO HARBORS    PTSUNNY   70  55  60 W8        29.71S
SILVER BAY     PTSUNNY   70  50  49 SW6       29.70F
GRAND MARAIS     N/A     44  41  89 W3        29.71F
G MARAIS ARPRT CLOUDY    55  46  71 SW3       29.73S
$$
MNZ029>031-032-039>041-046>048-054>057-064-031500-
   West Central Minnesota

CITY           SKY/WX    TMP DP  RH WIND       PRES   REMARKS
FERGUS FALLS   MOSUNNY   63  50  63 N13G18    29.78R
WHEATON        SUNNY     61  52  72 NW12      29.79R
MORRIS         SUNNY     61  54  77 SW3       29.77R
ALEXANDRIA     MOSUNNY   62  56  80 NW9       29.79R
ELBOW LAKE     FAIR      61  54  77 SW3       29.78R
WADENA         MOSUNNY   63  54  72 NW9       29.76R
GLENWOOD       MOSUNNY   61  55  82 W10       29.77R
APPLETON       SUNNY     64  54  68 SE3       29.76R
BENSON         SUNNY     63  52  67 S3        29.76R
ORTONVILLE     SUNNY     63  54  72 W5        29.76R
MADISON        SUNNY     61  52  72 E3        29.76R
WILLMAR        FAIR      63  54  72 SE13      29.76S
$$
MNZ033>034-036-042>043-049>051-058-059-031500-
   Central Minnesota

CITY           SKY/WX    TMP DP  RH WIND       PRES   REMARKS
ST CLOUD       MOSUNNY   60  53  77 S12       29.76R
SAUK CENTRE    FAIR      60  55  82 S8        29.75R
PAYNESVILLE    PTSUNNY   56  52  85 SE5       29.77R
AITKIN         SUNNY     66  54  63 W3        29.74S
PINE RIVER     MOSUNNY   64  52  63 NW7       29.79R
BRAINERD       SUNNY     65  53  65 NW7       29.77R
STAPLES        SUNNY     63  54  72 NW8       29.77R
LONG PRAIRIE   FAIR      63  54  72 CALM      29.77R
LITTLE FALLS   SUNNY     63  52  67 S3        29.75R
LITCHFIELD     MOSUNNY   63  55  77 SW6       29.76R
BUFFALO        LGT RAIN  58  51  77 CALM      29.77S
MAPLE LAKE     PTSUNNY   60  54  79 SE5       29.75F
$$
MNZ037-044-045-052-053-031500-
   East Central Minnesota

CITY           SKY/WX    TMP DP  RH WIND       PRES   REMARKS
PRINCETON      MOSUNNY   64  54  68 S8        29.77R
MORA           MOSUNNY   61  50  67 S7        29.79R
CAMBRIDGE      MOSUNNY   64  52  63 S10       29.74R
RUSH CITY      PTSUNNY   62  52  69 S9        29.77R
MOOSE LAKE     SUNNY     63  54  72 SW8       29.74R
HINCKLEY       FAIR      63  54  72 SW8       29.77R
CLOQUET        SUNNY     66  52  59 SW6       29.75R
MCGREGOR       SUNNY     64  54  68 W9        29.75S
$$
MNZ071>073-080-081-089-090-097-098-031500-
   Southwest Minnesota

CITY           SKY/WX    TMP DP  RH WIND       PRES   REMARKS
MONTEVIDEO     SUNNY     63  54  72 S7        29.76R
GRANITE FALLS  MOSUNNY   60  53  79 SE9       29.76R
CANBY          SUNNY     63  54  71 CALM      29.77R
MARSHALL       MOSUNNY   64  52  63 S5        29.75S
REDWOOD FALLS  MOSUNNY   61  53  75 E5        29.76R
OLIVIA         MOSUNNY   57  50  77 SE13      29.74R
PIPESTONE      MOSUNNY   66  54  63 S10       29.75R
WINDOM         SUNNY     66  54  63 CALM      29.77R
WORTHINGTON    MOSUNNY   63  52  67 SW7       29.77S
JACKSON        SUNNY     64  52  63 SW6       29.78R
TRACY          SUNNY     67  55  66 W3        29.76R
SLAYTON        MOSUNNY   68  53  58 SW10      29.76R
$$
MNZ065>067-074>077-082>085-091>093-031500-
   South Central Minnesota

CITY           SKY/WX    TMP DP  RH WIND       PRES   REMARKS
MANKATO        CLOUDY    61  48  63 S6        29.79R
NEW ULM        PTSUNNY   59  54  82 E3        29.77S
ST JAMES       PTSUNNY   64  54  68 S8        29.78R
FAIRMONT       MOSUNNY   63  50  63 S9        29.78R
GLENCOE        PTSUNNY   62  55  75 S7        29.78S
FARIBAULT      PTSUNNY   63  52  67 S7        29.80R
OWATONNA       PTSUNNY   64  52  63 S9        29.80R
WASECA         CLOUDY    64  52  63 S12       29.80R
ALBERT LEA     PTSUNNY   64  54  68 S7        29.79S
$$
MNZ078>079-086>088-094>096-031500-
   Southeast Minnesota

CITY           SKY/WX    TMP DP  RH WIND       PRES   REMARKS
ROCHESTER      PTSUNNY   59  51  75 S9        29.82S
RED WING       PTSUNNY   63  50  63 SE5       29.79S
STANTON        PTSUNNY   64  52  65 SW9       29.79R
DODGE CENTER   MOSUNNY   63  54  72 SW12      29.81R
WINONA         CLOUDY    63  50  63 S6        29.82S
AUSTIN         PTSUNNY   63  54  72 S10       29.80S
PRESTON        CLOUDY    59  51  72 S10       29.82S
$$
ABBREVIATIONS USED IN REMARKS
   TC - TEMPERATURES IN CELSIUS
  WCI - WIND CHILL INDEX
   HX - HEAT INDEX
  VSB - VISIBILITY
$$



USA.gov is the U.S. government's official web portal to all federal, state and local government web resources and services.